Change the Weather History Date:

Thursday, November 29, 2012

  Actual Average Record
Temperature  
Mean Temperature 58 °F 56 °F  
Max Temperature 72 °F 68 °F 80 °F (2001)
Min Temperature 44 °F 44 °F 26 °F (2002)
Degree Days  
Heating Degree Days 7 9  
Month to date heating degree days 179 178  
Since 1 July heating degree days 210 221  
Growing Degree Days 8 (Base 50)    
Moisture  
Dew Point 46 °F    
Average Humidity 65    
Maximum Humidity 86    
Minimum Humidity 44    
Precipitation  
Precipitation 0.00 in 0.10 in 1.52 in (1997)
Month to date precipitation 0.52 2.45  
Year to date precipitation 40.02 47.32  
Sea Level Pressure  
Sea Level Pressure 30.36 in    
Wind  
Wind Speed 4 mph (ENE)    
Max Wind Speed 9 mph    
Max Gust Speed 13 mph    
Visibility 8 miles    
Events      
T = Trace of Precipitation, MM = Missing Value Source: NWS Daily Summary

Daily Weather History Graph

Daily Weather History Graph

Search for Another Location

Airport or City:

Trip Planner

Search our weather history database for the weather conditions in past years. The results will help you decide how hot, cold, wet, or windy it might be!

Date:

Astronomy

Nov. 29, 2012 Rise Set
Actual Time 7:11 AM EST 5:31 PM EST
Civil Twilight 6:45 AM EST 5:57 PM EST
Nautical Twilight 6:15 AM EST 6:27 PM EST
Astronomical Twilight 5:46 AM EST 6:56 PM EST
Moon 6:33 PM EST (11/29) 7:57 AM EST (11/29)
Length of Visible Light 11h 11m
Length of Day
10h 19m
Full, 99% of the Moon is Illuminated
Nov 29
Full
Dec 6
Last Quarter
Dec 13
New
Dec 20
First Quarter
Dec 28
Full

Hourly Weather History & Observations

Time (EST) Temp. Dew Point Humidity Pressure Visibility Wind Dir Wind Speed Gust Speed Precip Events Conditions
12:30 AM 53.6 °F 46.4 °F 77% 30.34 in 8.0 mi Calm Calm - N/A   Overcast
12:53 AM 53.1 °F 48.0 °F 83% 30.37 in 8.0 mi ENE 3.5 mph - N/A   Overcast
1:38 AM 51.8 °F 46.4 °F 82% 30.33 in 8.0 mi NE 3.5 mph - N/A   Scattered Clouds
1:53 AM 51.1 °F 46.0 °F 83% 30.36 in 8.0 mi Calm Calm - N/A   Clear
2:46 AM 46.4 °F 42.8 °F 87% 30.34 in 2.0 mi Calm Calm - N/A   Clear
2:53 AM 46.0 °F 42.1 °F 86% 30.36 in 3.0 mi Calm Calm - N/A   Clear
3:08 AM 46.4 °F 41.0 °F 81% 30.34 in 2.5 mi Calm Calm - N/A   Haze
3:20 AM 44.6 °F 41.0 °F 87% 30.34 in 1.0 mi Calm Calm - N/A   Clear
3:33 AM 44.6 °F 41.0 °F 87% 30.34 in 3.0 mi Calm Calm - N/A   Clear
3:53 AM 44.1 °F 39.9 °F 85% 30.37 in 3.0 mi Calm Calm - N/A   Clear
4:11 AM 48.2 °F 44.6 °F 87% 30.34 in 5.0 mi Calm Calm - N/A   Mostly Cloudy
4:53 AM 48.9 °F 45.0 °F 86% 30.36 in 6.0 mi NNE 4.6 mph - N/A   Mostly Cloudy
5:26 AM 48.2 °F 44.6 °F 87% 30.34 in 8.0 mi NE 4.6 mph - N/A   Scattered Clouds
5:53 AM 48.0 °F 43.0 °F 83% 30.37 in 8.0 mi NE 4.6 mph - N/A   Clear
6:53 AM 46.9 °F 42.1 °F 83% 30.38 in 7.0 mi NNE 4.6 mph - N/A   Clear
7:53 AM 46.9 °F 43.0 °F 86% 30.40 in 5.0 mi NNE 4.6 mph - N/A   Clear
8:53 AM 51.1 °F 44.1 °F 77% 30.41 in 9.0 mi NE 5.8 mph - 0.01 in   Clear
9:53 AM 55.9 °F 42.1 °F 60% 30.41 in 10.0 mi ENE 6.9 mph - N/A   Clear
10:53 AM 61.0 °F 45.0 °F 56% 30.41 in 10.0 mi East 5.8 mph - N/A   Clear
11:53 AM 64.9 °F 46.0 °F 50% 30.40 in 10.0 mi NE 6.9 mph - N/A   Scattered Clouds
12:53 PM 68.0 °F 48.0 °F 49% 30.37 in 10.0 mi NE 4.6 mph - N/A   Partly Cloudy
1:53 PM 70.0 °F 48.9 °F 47% 30.34 in 10.0 mi Variable 3.5 mph - N/A   Clear
2:53 PM 71.1 °F 48.9 °F 45% 30.32 in 10.0 mi Variable 4.6 mph - N/A   Clear
3:53 PM 70.0 °F 48.9 °F 47% 30.32 in 10.0 mi East 5.8 mph - N/A   Partly Cloudy
4:53 PM 68.0 °F 50.0 °F 52% 30.32 in 10.0 mi East 3.5 mph - N/A   Scattered Clouds
5:53 PM 64.9 °F 51.1 °F 61% 30.32 in 10.0 mi Calm Calm - N/A   Mostly Cloudy
6:53 PM 61.0 °F 50.0 °F 67% 30.34 in 10.0 mi Calm Calm - N/A   Mostly Cloudy
7:53 PM 62.1 °F 51.1 °F 67% 30.35 in 10.0 mi East 5.8 mph - N/A   Mostly Cloudy
8:53 PM 59.0 °F 51.1 °F 75% 30.37 in 10.0 mi East 3.5 mph - N/A   Mostly Cloudy
9:53 PM 57.0 °F 51.1 °F 81% 30.36 in 10.0 mi East 4.6 mph - N/A   Clear
10:53 PM 55.0 °F 50.0 °F 83% 30.36 in 10.0 mi ENE 3.5 mph - N/A   Clear
11:53 PM 53.1 °F 48.0 °F 83% 30.36 in 10.0 mi Calm Calm - N/A   Clear